Volver al catálogo

ONEWEB-0662

ActivoComunicacionesPO
NORAD 55822·PAYLOAD·🇬🇧 United Kingdom

Lanzado Mar 9, 2023 desde Cape Canaveral Space Force Station

Loading…

Próximos Pases (próximas 24 horas)

TLE

ActualizadoSource: CelesTrak SupGP

Época: Sep 14, 2026, 06:38 UTC

1 55822C 23029AC  26257.27691389 -.00001121  00000+0 -30273-2 0  2575
2 55822  87.8893 271.9742 0002219  85.7216  21.3474 13.14504985    14

Sigue ONEWEB-0662 en tiempo real con AllMySat

Download on the App Store